• MPC Preparation (Info)

  • MPEC 2016-C20 : COMET P/2010 V1 = 2015 Y2 (Ikeya-Murakami)

    The following Minor Planet Electronic Circular may be linked-to from your own Web pages, but must not otherwise be redistributed electronically.

    A form allowing access to any MPEC is at the bottom of this page.


    Read MPEC 2016-C19 Read MPEC 2016-C21


    M.P.E.C. 2016-C20                                Issued 2016 Feb. 3, 19:19 UT
    
         The Minor Planet Electronic Circulars contain information on unusual
             minor planets and routine data on comets.  They are published
        on behalf of Division F of the International Astronomical Union by the
              Minor Planet Center, Smithsonian Astrophysical Observatory,
                              Cambridge, MA 02138, U.S.A.
    
                 Prepared using the Tamkin Foundation Computer Network
    
                                  MPC@CFA.HARVARD.EDU
                URL https://www.minorplanetcenter.net/    ISSN 1523-6714
    
                      COMET P/2010 V1 = 2015 Y2 (Ikeya-Murakami)
    
    Observations:
        PK10V01a KC2016 01 29.13655 09 03 13.95 +36 50 18.3          19.1 NuEC020850
        PK10V01a KC2016 01 29.15447 09 03 12.89 +36 50 17.0          18.9 NuEC020850
        PK10V01a KC2016 01 29.17241 09 03 12.19 +36 50 14.7          19.3 NuEC020850
        PK10V01a KC2016 01 29.19033 09 03 11.24 +36 50 12.8          19.1 NuEC020850
        PK10V01a *C2016 01 29.59123 09 02 52.90 +36 49 19.1          20.2 NSEC020F65
        PK10V01a *C2016 01 29.59454 09 02 52.74 +36 49 18.3          20.3 NSEC020F65
        PK10V01a *C2016 01 29.59894 09 02 52.53 +36 49 17.5          20.1 NSEC020F65
        PK10V01a *C2016 01 31.46592 09 01 31.04 +36 44 04.1          20.3 NSEC020F65
        PK10V01a *C2016 01 31.47113 09 01 30.75 +36 44 02.7          20.0 NSEC020F65
        PK10V01a *C2016 01 31.47807 09 01 30.40 +36 44 01.5          20.4 NSEC020F65
        PK10V01a *C2016 02 01.37641 09 00 50.75 +36 40 56.3          20.2 NSEC020F65
        PK10V01a *C2016 02 01.37974 09 00 50.58 +36 40 55.6          20.1 NSEC020F65
        PK10V01a *C2016 02 01.38194 09 00 50.48 +36 40 55.0          20.2 NSEC020F65
        PK10V01a KC2016 02 02.85814 08 59 43.71 +36 34 56.0          20.0 NqEC020A71
        PK10V01a KC2016 02 02.87687 08 59 42.86 +36 34 51.7          19.4 NqEC020A71
        PK10V01a  C2016 02 03.22423 08 59 27.28 +36 33 24.1          18.7 TqEC020G96
        PK10V01a  C2016 02 03.23041 08 59 26.88 +36 33 22.8          18.8 TqEC020G96
        PK10V01a  C2016 02 03.23658 08 59 26.55 +36 33 21.4          18.6 TqEC020G96
        PK10V01a  C2016 02 03.24274 08 59 26.14 +36 33 19.1          18.4 TqEC020G96
        PK10V01b *C2016 01 29.59288 09 03 02.38 +36 48 33.3          20.2 NSEC020F65
        PK10V01b *C2016 01 29.59729 09 03 02.08 +36 48 31.0          19.0 NSEC020F65
        PK10V01b *C2016 01 31.46853 09 01 40.35 +36 43 17.2          22.7 NSEC020F65
        PK10V01b *C2016 01 31.47503 09 01 40.13 +36 43 16.1          23.2 NSEC020F65
        PK10V01b *C2016 02 01.37807 09 01 00.27 +36 40 09.2          23.2 NSEC020F65
        PK10V01b *C2016 02 01.38028 09 00 59.99 +36 40 08.8          22.9 NSEC020F65
        PK10V01c *C2016 01 04.38847 09 12 22.03 +36 09 11.4          22.8 NSEC020F65
        PK10V01c *C2016 01 04.39115 09 12 22.04 +36 09 12.2          22.6 NSEC020F65
        PK10V01c  C2016 01 27.52935 09 04 31.563+36 52 35.61         20.2 TLEC020F51
        PK10V01c  C2016 01 27.54015 09 04 31.056+36 52 34.16         20.4 TLEC020F51
        PK10V01c  C2016 01 27.55094 09 04 30.547+36 52 33.08         20.2 TLEC020F51
        PK10V01c  C2016 01 27.56155 09 04 30.056+36 52 31.85         20.6 TLEC020F51
        PK10V01c KC2016 01 29.17241 09 03 23.06 +36 49 25.1          19.2 NuEC020850
        PK10V01c KC2016 01 29.19033 09 03 22.16 +36 49 22.6          18.7 NuEC020850
        PK10V01c *C2016 01 29.59123 09 03 03.77 +36 48 27.8          19.8 NSEC020F65
        PK10V01c *C2016 01 29.59454 09 03 03.62 +36 48 26.9          19.7 NSEC020F65
        PK10V01c *C2016 01 29.59894 09 03 03.42 +36 48 26.6          19.8 NSEC020F65
        PK10V01c *C2016 01 31.46592 09 01 41.99 +36 43 13.4          19.2 NSEC020F65
        PK10V01c *C2016 01 31.47200 09 01 41.67 +36 43 12.0          19.3 NSEC020F65
        PK10V01c *C2016 01 31.47807 09 01 41.34 +36 43 11.3          19.4 NSEC020F65
        PK10V01c *C2016 02 01.37641 09 01 01.76 +36 40 05.7          19.3 NSEC020F65
        PK10V01c *C2016 02 01.37974 09 01 01.61 +36 40 05.0          19.2 NSEC020F65
        PK10V01c *C2016 02 01.38194 09 01 01.48 +36 40 04.6          19.2 NSEC020F65
        PK10V01c  C2016 02 02.47467 09 00 11.63 +36 35 50.9          18.2 TLEC020T05
        PK10V01c  C2016 02 02.49562 09 00 10.49 +36 35 44.6          18.2 TLEC020T05
        PK10V01c  C2016 02 02.52079 09 00 09.29 +36 35 38.0          18.6 TLEC020T05
        PK10V01c  C2016 02 02.52641 09 00 08.89 +36 35 36.5          18.5 TLEC020T05
        PK10V01c  C2016 02 02.57939 09 00 07.60 +36 35 20.5          17.9 TqEC020D29
        PK10V01c  C2016 02 02.59619 09 00 06.77 +36 35 17.0          18.1 TqEC020D29
        PK10V01c  C2016 02 02.61298 09 00 05.97 +36 35 12.5          17.9 TqEC020D29
        PK10V01c  C2016 02 02.72618 09 00 00.09 +36 34 44.4          17.5 TqEC020D29
        PK10V01c  C2016 02 02.74209 08 59 59.32 +36 34 40.0          17.6 TqEC020D29
        PK10V01c  C2016 02 02.75800 08 59 58.50 +36 34 35.8          17.9 TqEC020D29
        PK10V01c KC2016 02 02.85814 08 59 54.80 +36 34 05.7          18.5 NqEC020A71
        PK10V01c KC2016 02 02.87687 08 59 53.93 +36 34 01.6          19.1 NqEC020A71
        PK10V01c  C2016 02 03.22423 08 59 38.26 +36 32 33.5          17.8 TqEC020G96
        PK10V01c  C2016 02 03.23041 08 59 37.95 +36 32 31.8          17.8 TqEC020G96
        PK10V01c  C2016 02 03.23658 08 59 37.56 +36 32 30.4          17.7 TqEC020G96
        PK10V01c  C2016 02 03.24274 08 59 37.30 +36 32 29.1          17.8 TqEC020G96
    
    Observer details:
    850 Cordell-Lorenz Observatory, Sewanee.  Observers D. T. Durig, X. Dai,
        Z. B. Zimmerman.  0.3-m f/4.9 Schmidt-Cassegrain + CCD.
    A71 Stixendorf.  Observers M. Jaeger, W. Vollmann, E. Prosperi, S. Prosperi.
        Measurer W. Vollmann.  0.25-m f/4 reflector + CCD.
    D29 Purple Mountain Observatory, XuYi Station.  Observers H. B. Zhao, B. Li,
        G. Zhaori, R. Q. Hong, L. F. Hu, B. Mei, X. P. Lu.  Measurers H. B. Zhao,
        B. Li. H. Lu, G. Zhaori.  1.04-m f/1.8 Schmidt + CCD.
    F51 Pan-STARRS 1, Haleakala.  Observers B. Gibson, T. Goggia, N. Primak,
        A. Schultz, M. Willman.  Measurers K. Chambers, S. Chastel, L. Denneau,
        H. Flewelling, M. Huber, E. Lilly, E. Magnier, R. Wainscoat, C. Waters,
        R. Weryk.  1.8-m Ritchey-Chretien + CCD.
    F65 Haleakala-Faulkes Telescope North.  Observers P.-J. Dekelver, W. Cuppens.
        Measurer P.-J. Dekelver.  2-m f/10 Ritchey-Chretien + CCD.
    G96 Mt. Lemmon Survey.  Observer R. A. Kowalski.  Measurers E. J. Christensen,
        D. C. Fuls, A. R. Gibbs, A. D. Grauer, J. A. Johnson, R. A. Kowalski,
        S. M. Larson, G. J. Leonard, R. G. Matheny, R. L. Seaman, F. C. Shelly.
        1.5-m reflector + CCD.
    T05 ATLAS-HKO, Haleakala.  Observers L. Denneau, A. Heinze, H. Weiland,
        B. Stalder, J. Tonry, A. Sherstyuk.  Measurers L. Denneau, A. Heinze,
        J. Tonry.  0.5-m f/2.0 Schmidt + CCD.
    
    Orbital elements:
        P/2010 V1-A (Ikeya-Murakami)
    Epoch 2010 Oct. 11.0 TT = JDT 2455480.5
    T 2010 Oct. 13.37154 TT                                 MPCW
    q   1.5790295            (2000.0)            P               Q
    n   0.18142291     Peri.  152.44948     -0.91504318     -0.40320972
    a   3.0903521      Node     3.82096     +0.33357614     -0.77160251
    e   0.4890454      Incl.    9.37762     +0.22676626     -0.49198728
    P   5.43
    From 545 observations 2010 Nov. 3-2016 Feb. 3, mean residual 0".7.
    
        P/2010 V1-A (Ikeya-Murakami)
    Epoch 2016 Apr. 2.0 TT = JDT 2457480.5
    T 2016 Mar. 17.29617 TT                                 MPCW
    q   1.5729718            (2000.0)            P               Q
    n   0.18173771     Peri.  152.45291     -0.91480507     -0.40375224
    a   3.0867823      Node     3.78318     +0.33404231     -0.77129958
    e   0.4904170      Incl.    9.38702     +0.22704057     -0.49201737
    P   5.42
    From 545 observations 2010 Nov. 3-2016 Feb. 3, mean residual 0".7.
    
        P/2010 V1-A (Ikeya-Murakami)
    Epoch 2021 Aug. 14.0 TT = JDT 2459440.5
    T 2021 Aug. 18.41868 TT                                 MPCW
    q   1.5771436            (2000.0)            P               Q
    n   0.18151620     Peri.  152.34078     -0.91403450     -0.40549365
    a   3.0892932      Node     3.78616     +0.33553800     -0.77072191
    e   0.4894808      Incl.    9.38008     +0.22793679     -0.49149022
    P   5.43
    From 545 observations 2010 Nov. 3-2016 Feb. 3, mean residual 0".7.
    
        P/2010 V1-A (Ikeya-Murakami)
    Epoch 2016 Jan. 13.0 TT = JDT 2457400.5
    T 2016 Mar. 17.30370 TT                                 MPCW
    q   1.5729681            (2000.0)            P               Q
    n   0.18176886     Peri.  152.45639     -0.91483523     -0.40368385
    a   3.0864297      Node     3.78399     +0.33398414     -0.77132621
    e   0.4903600      Incl.    9.38689     +0.22700462     -0.49203174
    P   5.42
    From 545 observations 2010 Nov. 3-2016 Feb. 3, mean residual 0".7.
    
